TimeAST,TemperatureF,Dew PointF,Humidity,Sea Level PressureIn,VisibilityMPH,Wind Direction,Wind SpeedMPH,Gust SpeedMPH,PrecipitationIn,Events,Conditions,WindDirDegrees,DateUTC
12:00 AM,66.2,53.6,64,30.06,-9999.0,South,5.8,-,N/A,,Clear,180,2013-01-24 21:00:00
12:30 AM,66.2,53.6,64,30.06,-9999.0,South,4.6,-,N/A,,Clear,190,2013-01-24 21:30:00
1:00 AM,66.2,51.8,60,30.06,-9999.0,SSW,4.6,-,N/A,,Clear,210,2013-01-24 22:00:00
1:30 AM,64.4,51.8,64,30.06,-9999.0,SW,3.5,-,N/A,,Clear,220,2013-01-24 22:30:00
2:00 AM,64.4,53.6,68,30.06,-9999.0,SSW,3.5,-,N/A,,Clear,210,2013-01-24 23:00:00
2:30 AM,64.4,55.4,73,30.06,-9999.0,SSW,3.5,-,N/A,,Clear,200,2013-01-24 23:30:00
3:00 AM,64,56,67,30.09,6,SSW,4.6,,,,,210,2013-01-25 00:00:00
3:00 AM,64.4,55.4,73,30.06,-9999.0,SSW,4.6,-,N/A,,Clear,210,2013-01-25 00:00:00
3:30 AM,62.6,57.2,82,30.06,-9999.0,SSW,3.5,-,N/A,,Clear,200,2013-01-25 00:30:00
4:00 AM,62.6,57.2,82,30.06,-9999.0,Variable,2.3,-,N/A,,Clear,0,2013-01-25 01:00:00
5:00 AM,60.8,53.6,77,30.06,-9999.0,SSW,3.5,-,N/A,,Clear,200,2013-01-25 02:00:00
5:30 AM,60.8,51.8,72,30.09,-9999.0,SW,4.6,-,N/A,,Clear,220,2013-01-25 02:30:00
6:00 AM,62.6,50.0,63,30.09,-9999.0,SW,3.5,-,N/A,,Clear,220,2013-01-25 03:00:00
6:30 AM,62.6,50.0,63,30.12,-9999.0,SW,4.6,-,N/A,,Clear,220,2013-01-25 03:30:00
7:00 AM,62.6,44.6,52,30.12,-9999.0,SSW,4.6,-,N/A,,Clear,200,2013-01-25 04:00:00
8:00 AM,64.4,44.6,49,30.15,-9999.0,SSW,3.5,-,N/A,,Clear,200,2013-01-25 05:00:00
8:30 AM,68.0,44.6,43,30.15,-9999.0,SSW,5.8,-,N/A,,Clear,200,2013-01-25 05:30:00
9:00 AM,68,44,30,30.18,6,South,5.8,,,,Clear,190,2013-01-25 06:00:00
9:00 AM,68.0,42.8,40,30.15,-9999.0,South,5.8,-,N/A,,Clear,190,2013-01-25 06:00:00
9:30 AM,71.6,41.0,33,30.15,-9999.0,South,5.8,-,N/A,,Clear,180,2013-01-25 06:30:00
10:00 AM,73.4,39.2,29,30.15,-9999.0,South,6.9,-,N/A,,Clear,180,2013-01-25 07:00:00
10:30 AM,75.2,37.4,25,30.15,-9999.0,South,8.1,-,N/A,,Clear,180,2013-01-25 07:30:00
11:00 AM,78.8,37.4,23,30.15,-9999.0,SSW,8.1,-,N/A,,Clear,200,2013-01-25 08:00:00
12:00 PM,80.6,37.4,21,30.09,-9999.0,SSW,4.6,-,N/A,,Clear,200,2013-01-25 09:00:00
1:00 PM,77.0,53.6,44,30.06,-9999.0,SE,9.2,-,N/A,,Clear,140,2013-01-25 10:00:00
1:30 PM,77.0,51.8,41,30.06,-9999.0,SE,9.2,-,N/A,,Clear,130,2013-01-25 10:30:00
2:00 PM,75.2,51.8,44,30.06,-9999.0,SE,9.2,-,N/A,,Clear,130,2013-01-25 11:00:00
2:30 PM,75.2,50.0,41,30.06,-9999.0,SE,9.2,-,N/A,,Clear,140,2013-01-25 11:30:00
3:00 PM,74,51,34,30.06,7,SE,10.4,,,,,130,2013-01-25 12:00:00
3:00 PM,75.2,51.8,44,30.06,-9999.0,SE,10.4,-,N/A,,Clear,130,2013-01-25 12:00:00
4:00 PM,73.4,50.0,44,30.06,-9999.0,SE,9.2,-,N/A,,Clear,140,2013-01-25 13:00:00
4:30 PM,71.6,53.6,53,30.06,-9999.0,SSE,9.2,-,N/A,,Clear,150,2013-01-25 13:30:00
5:00 PM,69.8,55.4,60,30.06,-9999.0,SSE,9.2,-,N/A,,Clear,150,2013-01-25 14:00:00
5:30 PM,69.8,57.2,64,30.06,-9999.0,SE,6.9,-,N/A,,Clear,140,2013-01-25 14:30:00
6:00 PM,68.0,59.0,73,30.09,-9999.0,SSE,8.1,-,N/A,,Clear,150,2013-01-25 15:00:00
6:30 PM,68.0,57.2,68,30.09,-9999.0,SE,8.1,-,N/A,,Clear,140,2013-01-25 15:30:00
7:00 PM,68.0,57.2,68,30.09,-9999.0,SSE,9.2,-,N/A,,Clear,150,2013-01-25 16:00:00
7:30 PM,68.0,59.0,73,30.09,-9999.0,SSE,6.9,-,N/A,,Clear,150,2013-01-25 16:30:00
8:00 PM,68.0,57.2,68,30.09,-9999.0,SE,6.9,-,N/A,,Clear,140,2013-01-25 17:00:00
8:30 PM,68.0,57.2,68,30.09,-9999.0,SSE,5.8,-,N/A,,Clear,150,2013-01-25 17:30:00
9:00 PM,68,57,59,30.10,7,SSE,5.8,,,,,150,2013-01-25 18:00:00
9:00 PM,68.0,57.2,68,30.09,-9999.0,SSE,5.8,-,N/A,,Clear,150,2013-01-25 18:00:00
9:30 PM,68.0,57.2,68,30.09,-9999.0,SSE,8.1,-,N/A,,Clear,150,2013-01-25 18:30:00
10:00 PM,69.8,57.2,64,30.09,-9999.0,SSE,5.8,-,N/A,,Clear,160,2013-01-25 19:00:00
10:30 PM,68.0,57.2,68,30.09,-9999.0,South,4.6,-,N/A,,Clear,180,2013-01-25 19:30:00
11:00 PM,68.0,57.2,68,30.09,-9999.0,South,3.5,-,N/A,,Clear,190,2013-01-25 20:00:00